User: anonymous   Login
Location: Astronight Observatory
(42.6003°N, 71.2981°W)
Time: 14:59:53
(UTC-05:00)
Language:

DELTA 2 R/B (1) - Orbit

View from above orbital plane
View from above orbital plane
View from above satellite
View from above satellite

Ground track
Ground track

The orbit data is extracted from the following two-line orbital elements,

1 27665U 03005C   17349.23441625 -.00000109  00000-0 -92420-5 0  9999
2 27665  39.5760 268.3955 0008010 359.7970 159.8364 14.28462640776828
Epoch (UTC): 15 December 2017 05:37:33
Eccentricity: 0.0008010
inclination: 39.5760°
perigee height: 791 km
apogee height: 802 km
right ascension of ascending node: 268.3955°
argument of perigee: 359.7970°
revolutions per day: 14.28462640
mean anomaly at epoch: 159.8364°
orbit number at epoch: 77682

The dashed part of the orbit path shows where the satellite is in the earth's shadow,  

DLR